Content
SEND FEEDBACK

Daily
Averages
Monthly
Summary
United States of America

BARDWELL, KENTUCKY


Home > North America > United States > Kentucky
Elevation: 33 feet     Latitude: 36 52N     Longitude: 088 57W

WEATHER
 
SELECT A DAY
Number of Records: 247,130;   Date Range: 7/19/04 - 12/18/14
 
SHARE

PRINT THIS DATA

[ ← Previous Day ]
WEATHER ALMANAC - FEBRUARY 5, 2013
[ Next Day → ]
[ °C ]   °F
Weather ElementAverageHighLow
Temperature41.6 °F55.4 °F (2:35 pm)30.2 °F (5:55 am)
Dewpoint35 °F42.8 °F (6:15 pm)26.6 °F (5:55 am)
Humidity78.5 %93 % (6:55 am)58 % (2:15 pm)
Barometer30.00 in30.10 in (11:35 pm)29.93 in (12:55 am)
Wind Speed4 mph12.7 mph (2:55 pm)
Wind Gust16.1 mph (2:55 pm)
Weather ElementAverage
Visibility7 mi
Wind DirectionSE (131.7 °)

Weather ElementTotal
Precipitation---
Heating Degree Days22.2 (Base 65)
Averaged from 71 records on February 5, 2013
WEATHER CONDITIONS BREAKOUT
WIND DIRECTION BREAKOUT
WEATHER BY HOUR - FEBRUARY 5, 2013
[ °C ]   °F
Local TimeTemperatureDewpointHumidityBarometerVisibilityWind DirectionWind SpeedGust SpeedPrecipitationEventsConditions
12:35 AM42.8 °F39.2 °F87 %29.94 in10.0 miNorth (360°)5.8 mphOvercast
12:55 AM41.0 °F37.4 °F87 %29.93 in10.0 miNorth (10°)5.8 mphMostly Cloudy
1:15 AM39.2 °F35.6 °F87 %29.94 in10.0 miNorth (360°)6.9 mphClear
1:35 AM37.4 °F32.0 °F81 %29.95 in10.0 miNorth (350°)5.8 mphScattered Clouds
1:55 AM39.2 °F32.0 °F75 %29.95 in10.0 miNorth (350°)6.9 mphMostly Cloudy
2:15 AM37.4 °F32.0 °F81 %29.95 in10.0 miNorth (350°)6.9 mphMostly Cloudy
2:35 AM37.4 °F32.0 °F81 %29.95 in10.0 miNorth (360°)4.6 mphOvercast
2:55 AM37.4 °F30.2 °F75 %29.95 in10.0 miNorth (360°)3.5 mphScattered Clouds
3:15 AM35.6 °F30.2 °F81 %29.95 in10.0 miNNE (30°)3.5 mphClear
3:35 AM35.6 °F30.2 °F81 %29.95 in10.0 miNNE (30°)3.5 mphClear
3:55 AM35.6 °F30.2 °F81 %29.95 in10.0 miNorth (360°)5.8 mphClear
4:15 AM33.8 °F28.4 °F81 %29.95 in10.0 miCalmClear
4:35 AM33.8 °F28.4 °F81 %29.95 in10.0 miCalmClear
4:55 AM33.8 °F28.4 °F81 %29.95 in10.0 miCalmClear
5:15 AM32.0 °F28.4 °F87 %29.95 in7.0 miCalmClear
5:35 AM32.0 °F28.4 °F87 %29.96 in7.0 miNorth (10°)3.5 mphClear
5:55 AM30.2 °F26.6 °F86 %29.96 in5.0 miCalmClear
6:15 AM30.2 °F26.6 °F86 %29.97 in5.0 miCalmClear
6:35 AM30.2 °F26.6 °F86 %30.00 in5.0 miNW (320°)5.8 mphClear
6:55 AM30.2 °F28.4 °F93 %30.00 in5.0 miNorth (350°)4.6 mphClear
7:15 AM32.0 °F28.4 °F87 %30.01 in5.0 miNorth (10°)3.5 mphClear
7:35 AM32.0 °F30.2 °F93 %30.01 in5.0 miCalmClear
7:55 AM33.8 °F30.2 °F87 %30.01 in5.0 miNNE (20°)4.6 mphClear
8:15 AM33.8 °F30.2 °F87 %30.01 in5.0 miNE (40°)3.5 mphClear
8:35 AM35.6 °F32.0 °F87 %30.02 in7.0 miCalmClear
8:55 AM35.6 °F32.0 °F87 %30.02 in7.0 miCalmClear
9:15 AM37.4 °F32.0 °F81 %30.03 in7.0 miCalmClear
9:35 AM39.2 °F32.0 °F75 %30.03 in7.0 miCalmClear
9:55 AM39.2 °F33.8 °F81 %30.03 in7.0 miCalmClear
10:15 AM42.8 °F35.6 °F76 %30.03 in10.0 miSSE (160°)4.6 mphClear
10:35 AM42.8 °F35.6 °F76 %30.03 in7.0 miSSE (150°)5.8 mphClear
10:55 AM44.6 °F35.6 °F71 %30.02 in7.0 miSE (140°)5.8 mphClear
11:15 AM44.6 °F37.4 °F76 %30.02 in7.0 miSE (130°)4.6 mphClear
11:35 AM46.4 °F37.4 °F71 %30.01 in7.0 miSouth (180°)3.5 mphClear
11:55 AM48.2 °F39.2 °F71 %30.00 in10.0 miSouth (190°)6.9 mphClear
12:15 PM50.0 °F39.2 °F66 %29.99 in10.0 miSW (230°)6.9 mphClear
12:35 PM50.0 °F39.2 °F66 %29.98 in10.0 miSouth (190°)9.2 mphClear
12:55 PM51.8 °F39.2 °F62 %29.96 in10.0 miSouth (180°)9.2 mphClear
1:15 PM51.8 °F39.2 °F62 %29.96 in10.0 miSSW (210°)9.2 mphClear
1:35 PM51.8 °F41.0 °F67 %29.96 in10.0 miSSW (200°)11.5 mphClear
1:55 PM53.6 °F41.0 °F62 %29.95 in10.0 miSSW (210°)9.2 mphClear
2:15 PM53.6 °F39.2 °F58 %29.96 in10.0 miSW (230°)11.5 mphClear
2:35 PM55.4 °F41.0 °F58 %29.96 in10.0 miSW (220°)11.5 mphClear
2:55 PM55.4 °F41.0 °F58 %29.96 in10.0 miSW (230°)12.7 mph16.1 mphClear
3:15 PM53.6 °F41.0 °F62 %29.96 in10.0 miSW (230°)11.5 mph16.1 mphClear
3:35 PM53.6 °F41.0 °F62 %29.96 in10.0 miSW (220°)11.5 mphClear
3:55 PM53.6 °F41.0 °F62 %29.96 in10.0 miSW (220°)6.9 mphClear
4:15 PM53.6 °F41.0 °F62 %29.97 in10.0 miSSW (210°)6.9 mphClear
4:35 PM53.6 °F41.0 °F62 %29.96 in10.0 miSW (220°)6.9 mphClear
4:55 PM53.6 °F41.0 °F62 %29.97 in10.0 miSSW (200°)5.8 mphClear
5:15 PM51.8 °F41.0 °F67 %29.97 in10.0 miSSW (200°)3.5 mphClear
5:35 PM50.0 °F41.0 °F71 %29.97 in10.0 miWSW (240°)3.5 mphClear
5:55 PM48.2 °F41.0 °F76 %29.98 in10.0 miSouth (190°)3.5 mphClear
6:15 PM48.2 °F42.8 °F82 %29.98 in7.0 miSouth (180°)3.5 mphClear
6:35 PM46.4 °F41.0 °F81 %29.99 in7.0 miCalmClear
6:55 PM44.6 °F39.2 °F81 %30.00 in7.0 miCalmClear
7:15 PM44.6 °F39.2 °F81 %30.02 in7.0 miCalmClear
7:35 PM41.0 °F35.6 °F81 %30.02 in4.0 miCalmClear
7:55 PM42.8 °F37.4 °F81 %30.03 in0.5 miCalmFogFog
8:15 PM42.8 °F39.2 °F87 %30.03 in1.5 miCalmMist
8:35 PM41.0 °F37.4 °F87 %30.04 in0.2 miCalmFogFog
8:55 PM37.4 °F33.8 °F87 %30.05 in0.2 miCalmFogFog
9:15 PM35.6 °F32.0 °F87 %30.06 in0.2 miCalmFogFog
9:35 PM39.2 °F35.6 °F87 %30.07 in0.2 miCalmFogFog
9:55 PM37.4 °F35.6 °F93 %30.07 in0.2 miCalmFogFog
10:15 PM35.6 °F32.0 °F87 %30.07 in0.2 miCalmFogFog
10:35 PM33.8 °F32.0 °F93 %30.08 in0.2 miCalmSnowLight Snow
10:55 PM33.8 °F32.0 °F93 %30.09 in0.2 miCalmFogFog
11:15 PM35.6 °F32.0 °F87 %30.09 in0.2 miNorth (350°)4.6 mphFogFog
11:35 PM35.6 °F32.0 °F87 %30.10 in0.5 miNorth (360°)3.5 mphFogFog
11:55 PM39.2 °F37.4 °F93 %30.10 in7.0 miNorth (10°)3.5 mphClear
Hourly data recorded from KCIR, located miles away from Bardwell, Kentucky







STORIES FROM OUR PARTNERS